Weather History for KFFL - January, 2013

Change the Weather History Date:

Thursday, January 3, 2013

  Actual Average Record
Temperature  
Mean Temperature 20 °F -  
Max Temperature 30 °F 29 °F 53 °F (1997)
Min Temperature 10 °F 11 °F -14 °F (1979)
Degree Days  
Heating Degree Days 45    
Moisture  
Dew Point 17 °F    
Average Humidity 77    
Maximum Humidity 86    
Minimum Humidity 63    
Precipitation  
Precipitation 0.00 in - - ()
Sea Level Pressure  
Sea Level Pressure 30.28 in    
Wind  
Wind Speed 10 mph (West)    
Max Wind Speed 21 mph    
Max Gust Speed 26 mph    
Visibility 10 miles    
Events      
Averages and records for this station are not official NWS values.
T = Trace of Precipitation, MM = Missing Value Source: NWS Daily Summary

Daily Weather History Graph

Daily Weather History Graph

Search for Another Location

Airport or City:

Trip Planner

Search our weather history database for the weather conditions in past years. The results will help you decide how hot, cold, wet, or windy it might be!

Date:

Astronomy

Jan. 03, 2013 Rise Set
Actual Time 7:33 AM CST 4:52 PM CST
Civil Twilight 7:02 AM CST 5:23 PM CST
Nautical Twilight 6:27 AM CST 5:57 PM CST
Astronomical Twilight 5:54 AM CST 6:31 PM CST
Moon 11:31 PM CST (1/3) 10:41 AM CST (1/3)
Length of Visible Light 10h 20m
Length of Day
9h 19m
Waning Gibbous, 65% of the Moon is Illuminated
Jan 3
Waning Gibbous
Jan 4
Last Quarter
Jan 11
New
Jan 18
First Quarter
Jan 26
Full

Hourly Weather History & Observations

Time (CST) Temp. Windchill Dew Point Humidity Pressure Visibility Wind Dir Wind Speed Gust Speed Precip Events Conditions
12:15 AM 28.4 °F 22.2 °F 24.8 °F 86% 30.15 in 10.0 mi WSW 5.8 mph - N/A   Overcast
12:35 AM 28.4 °F 19.1 °F 24.8 °F 86% 30.15 in 10.0 mi West 10.4 mph - N/A   Overcast
12:55 AM 28.4 °F 20.4 °F 23.0 °F 80% 30.15 in 10.0 mi West 8.1 mph - N/A   Mostly Cloudy
1:15 AM 28.4 °F 20.4 °F 24.8 °F 86% 30.15 in 10.0 mi West 8.1 mph - N/A   Overcast
1:35 AM 28.4 °F 19.1 °F 24.8 °F 86% 30.16 in 10.0 mi West 10.4 mph - N/A   Overcast
1:55 AM 28.4 °F 19.1 °F 24.8 °F 86% 30.16 in 10.0 mi West 10.4 mph - N/A   Overcast
2:15 AM 28.4 °F 19.7 °F 24.8 °F 86% 30.17 in 10.0 mi West 9.2 mph - N/A   Overcast
2:35 AM 28.4 °F 19.7 °F 24.8 °F 86% 30.18 in 10.0 mi West 9.2 mph - N/A   Overcast
2:55 AM 28.4 °F 20.4 °F 24.8 °F 86% 30.18 in 10.0 mi West 8.1 mph - N/A   Overcast
3:15 AM 28.4 °F 20.4 °F 24.8 °F 86% 30.19 in 10.0 mi West 8.1 mph - N/A   Overcast
3:35 AM 28.4 °F 21.2 °F 23.0 °F 80% 30.19 in 10.0 mi West 6.9 mph - N/A   Overcast
3:55 AM 28.4 °F 20.4 °F 23.0 °F 80% 30.19 in 10.0 mi West 8.1 mph - N/A   Overcast
4:15 AM 28.4 °F 21.2 °F 23.0 °F 80% 30.19 in 10.0 mi West 6.9 mph - N/A   Overcast
4:35 AM 28.4 °F 21.2 °F 23.0 °F 80% 30.19 in 10.0 mi West 6.9 mph - N/A   Overcast
4:55 AM 28.4 °F 22.2 °F 24.8 °F 86% 30.20 in 10.0 mi West 5.8 mph - N/A   Overcast
5:15 AM 28.4 °F 22.2 °F 24.8 °F 86% 30.20 in 10.0 mi West 5.8 mph - N/A   Overcast
5:35 AM 28.4 °F 23.3 °F 24.8 °F 86% 30.20 in 10.0 mi WSW 4.6 mph - N/A   Overcast
5:55 AM 28.4 °F 23.3 °F 24.8 °F 86% 30.20 in 10.0 mi WSW 4.6 mph - N/A   Overcast
6:15 AM 30.2 °F 24.3 °F 24.8 °F 80% 30.21 in 10.0 mi WSW 5.8 mph - N/A   Overcast
6:35 AM 30.2 °F 23.4 °F 24.8 °F 80% 30.21 in 10.0 mi West 6.9 mph - N/A   Overcast
6:55 AM 30.2 °F 21.9 °F 24.8 °F 80% 30.22 in 10.0 mi West 9.2 mph - N/A   Overcast
7:35 AM 30.2 °F 21.9 °F 24.8 °F 80% 30.23 in 10.0 mi West 9.2 mph - N/A   Overcast
7:55 AM 30.2 °F 21.3 °F 24.8 °F 80% 30.23 in 10.0 mi West 10.4 mph - N/A   Overcast
8:15 AM 30.2 °F 20.8 °F 24.8 °F 80% 30.24 in 10.0 mi WNW 11.5 mph 16.1 mph N/A   Overcast
8:35 AM 30.2 °F 20.2 °F 24.8 °F 80% 30.25 in 10.0 mi WNW 12.7 mph - N/A   Overcast
8:55 AM 26.6 °F 12.7 °F 21.2 °F 80% 30.26 in 10.0 mi NNW 20.7 mph 26.5 mph N/A   Overcast
9:15 AM 24.8 °F 12.4 °F 19.4 °F 80% 30.28 in 10.0 mi NNW 15.0 mph - N/A   Overcast
9:35 AM 24.8 °F 12.4 °F 19.4 °F 80% 30.29 in 7.0 mi NW 15.0 mph - N/A   Overcast
9:55 AM 24.8 °F 11.9 °F 17.6 °F 74% 30.30 in 10.0 mi NW 16.1 mph 23.0 mph N/A   Overcast
10:15 AM 24.8 °F 11.9 °F 17.6 °F 74% 30.31 in 10.0 mi NW 16.1 mph 21.9 mph N/A   Overcast
10:35 AM 24.8 °F 11.9 °F 17.6 °F 74% 30.32 in 10.0 mi WNW 16.1 mph 21.9 mph N/A   Overcast
10:55 AM 24.8 °F 12.4 °F 17.6 °F 74% 30.32 in 10.0 mi NW 15.0 mph 18.4 mph N/A   Mostly Cloudy
11:15 AM 26.6 °F 15.7 °F 17.6 °F 69% 30.31 in 10.0 mi WNW 12.7 mph - N/A   Scattered Clouds
11:35 AM 26.6 °F 14.3 °F 19.4 °F 74% 30.31 in 10.0 mi West 16.1 mph 20.7 mph N/A   Mostly Cloudy
11:55 AM 26.6 °F 13.4 °F 17.6 °F 69% 30.30 in 10.0 mi West 18.4 mph 26.5 mph N/A   Mostly Cloudy
12:15 PM 26.6 °F 12.7 °F 17.6 °F 69% 30.31 in 10.0 mi WNW 20.7 mph 26.5 mph N/A   Scattered Clouds
12:35 PM 26.6 °F 12.7 °F 17.6 °F 69% 30.30 in 10.0 mi West 20.7 mph 26.5 mph N/A   Scattered Clouds
12:55 PM 24.8 °F 10.3 °F 15.8 °F 69% 30.30 in 10.0 mi WNW 20.7 mph - N/A   Scattered Clouds
1:15 PM 26.6 °F 14.7 °F 15.8 °F 64% 30.30 in 10.0 mi West 15.0 mph 21.9 mph N/A   Clear
1:35 PM 26.6 °F 14.7 °F 15.8 °F 64% 30.30 in 10.0 mi West 15.0 mph - N/A   Clear
1:55 PM 26.6 °F 14.3 °F 15.8 °F 64% 30.30 in 10.0 mi West 16.1 mph 20.7 mph N/A   Clear
2:15 PM 26.6 °F 14.7 °F 15.8 °F 64% 30.30 in 10.0 mi West 15.0 mph 19.6 mph N/A   Clear
2:35 PM 26.6 °F 14.3 °F 15.8 °F 64% 30.31 in 10.0 mi West 16.1 mph - N/A   Clear
2:55 PM 26.6 °F 14.7 °F 15.8 °F 64% 30.31 in 10.0 mi WNW 15.0 mph - N/A   Clear
3:15 PM 24.8 °F 12.4 °F 15.8 °F 69% 30.32 in 10.0 mi WNW 15.0 mph 19.6 mph N/A   Clear
3:35 PM 24.8 °F 12.9 °F 15.8 °F 69% 30.33 in 10.0 mi WNW 13.8 mph - N/A   Clear
3:55 PM 24.8 °F 12.9 °F 14.0 °F 64% 30.33 in 10.0 mi WNW 13.8 mph 17.3 mph N/A   Clear
4:15 PM 23.0 °F 11.1 °F 12.2 °F 63% 30.34 in 10.0 mi WNW 12.7 mph - N/A   Clear
4:35 PM 21.2 °F 9.5 °F 12.2 °F 68% 30.34 in 10.0 mi WNW 11.5 mph - N/A   Clear
4:55 PM 21.2 °F 8.9 °F 12.2 °F 68% 30.35 in 10.0 mi WNW 12.7 mph 17.3 mph N/A   Clear
5:15 PM 19.4 °F 7.9 °F 10.4 °F 68% 30.35 in 10.0 mi WNW 10.4 mph - N/A   Clear
5:35 PM 17.6 °F 6.4 °F 10.4 °F 73% 30.36 in 10.0 mi WNW 9.2 mph - N/A   Clear
5:55 PM 17.6 °F 8.2 °F 10.4 °F 73% 30.36 in 10.0 mi NW 6.9 mph - N/A   Clear
6:15 PM 15.8 °F 5.1 °F 10.4 °F 79% 30.37 in 10.0 mi NW 8.1 mph - N/A   Clear
6:35 PM 15.8 °F 6.1 °F 10.4 °F 79% 30.37 in 10.0 mi WNW 6.9 mph - N/A   Clear
6:55 PM 14.0 °F 5.1 °F 8.6 °F 79% 30.37 in 10.0 mi WNW 5.8 mph - N/A   Clear
7:15 PM 14.0 °F 5.1 °F 8.6 °F 79% 30.38 in 10.0 mi WNW 5.8 mph - N/A   Clear
7:35 PM 14.0 °F 3.9 °F 8.6 °F 79% 30.38 in 10.0 mi West 6.9 mph - N/A   Clear
7:55 PM 14.0 °F 2.0 °F 8.6 °F 79% 30.37 in 10.0 mi West 9.2 mph - N/A   Clear
8:15 PM 14.0 °F 3.9 °F 8.6 °F 79% 30.38 in 10.0 mi West 6.9 mph - N/A   Clear
8:35 PM 14.0 °F 3.9 °F 8.6 °F 79% 30.38 in 10.0 mi West 6.9 mph - N/A   Clear
8:55 PM 12.2 °F 2.9 °F 8.6 °F 85% 30.37 in 10.0 mi West 5.8 mph - N/A   Clear
9:15 PM 12.2 °F 2.9 °F 8.6 °F 85% 30.37 in 10.0 mi WSW 5.8 mph - N/A   Clear
9:35 PM 12.2 °F 6.1 °F 6.8 °F 79% 30.36 in 10.0 mi WSW 3.5 mph - N/A   Clear
9:55 PM 12.2 °F 6.1 °F 6.8 °F 79% 30.36 in 10.0 mi WSW 3.5 mph - N/A   Clear
10:15 PM 12.2 °F 2.9 °F 6.8 °F 79% 30.35 in 10.0 mi SW 5.8 mph - N/A   Clear
10:35 PM 12.2 °F 4.3 °F 6.8 °F 79% 30.36 in 10.0 mi WSW 4.6 mph - N/A   Clear
10:55 PM 10.4 °F 2.2 °F 6.8 °F 85% 30.35 in 10.0 mi WSW 4.6 mph - N/A   Clear
11:15 PM 12.2 °F 4.3 °F 6.8 °F 79% 30.35 in 10.0 mi SW 4.6 mph - N/A   Clear
11:35 PM 12.2 °F 4.3 °F 6.8 °F 79% 30.34 in 10.0 mi SW 4.6 mph - N/A   Clear
11:55 PM 12.2 °F 1.7 °F 6.8 °F 79% 30.34 in 10.0 mi WSW 6.9 mph - N/A   Clear